Hourly Data Report for June 07, 2017

ATIKOKAN (AUT)
ONTARIO

48°45'40.000" N
91°37'41.000" W
389.30 m
6020LPQ
71747
WCH

Download Data

Hourly Data (June 2017)
Hourly Data Report for June 7, 2017
TIME
LST
Temp Definition
°C
Dew Point Definition
°C
Rel Hum Definition
%
Precip. Amount Definition
mm

Wind Dir Definition
10's deg

Wind Spd Definition
km/h
Visibility Definition
km
Stn Press Definition
kPa
Hmdx Definition


Wind Chill Definition


Weather Definition


00:00 9.9 7.6 86 0.0 3 2   97.24     LegendNANA
01:00 9.1 6.8 86 0.0   0   97.24     LegendNANA
02:00 8.5 7.2 91 0.0 5 2   97.25     LegendNANA
03:00 7.8 6.7 93 0.0   0   97.26     LegendNANA
04:00 7.3 6.5 94 0.0 0 1   97.28     LegendNANA
05:00 8.1 7.3 95 0.0   0   97.29     LegendNANA
06:00 14.0 9.3 73 0.0   0   97.28     LegendNANA
07:00 16.9 5.7 48 0.0 24 6   97.28     LegendNANA
08:00 19.8 6.8 43 0.0 23 5   97.25     LegendNANA
09:00 21.8 6.5 37 0.0 24 12   97.22     LegendNANA
10:00 23.5 7.4 36 0.0 24 14   97.17     LegendNANA
11:00 25.0 6.9 31 0.0 22 14   97.11 25   LegendNANA
12:00 25.7 8.7 34 0.0 22 12   97.04 26   LegendNANA
13:00 26.5 9.9 35 0.0 28 10   96.98 28   LegendNANA
14:00 27.2 10.3 35 0.0 26 10   96.91 29   LegendNANA
15:00 26.6 9.5 34 0.0 27 11   96.88 28   LegendNANA
16:00 26.0 10.5 38 0.0 27 7   96.87 28   LegendNANA
17:00 24.6 13.1 49 0.0 30 9   96.86 27   LegendNANA
18:00 24.1 12.9 50 0.0 30 6   96.84 27   LegendNANA
19:00 22.3 13.6 58 0.0 32 3   96.80 25   LegendNANA
20:00 20.5 14.3 68 0.0 0 1   96.80     LegendNANA
21:00 18.7 14.9 78 0.0 29 3   96.83     LegendNANA
22:00 17.8 15.3 86 0.0 2 3   96.82     LegendNANA
23:00 18.1 15.2 83 0.3 24 7   96.91     LegendNANA

Notes on Data Quality.

Legend

  • E = Estimated
  • M = Missing
  • NA = Not Available*
  • [empty] = Indicates an unobserved value
Date modified: